Weather in Korobeynikovo

Russia / Altai Krai     52°11′25″N   83°42′25″E
temp.,
°C
wind,
m/s
gust,
m/s
humid.,
%
clouds,
%
prec.,
mm/h
press.,
hPa
HPBL,
m
21 april, wed
wed2101:00−5e24660 0.0 1027219
04:00−5ene24660 0.0 1025271
07:00−5ene236072 0.0 1025304
10:00−2e2241100 0.0 1025761
13:00+1s1131100 0.0 10231059
16:00+3w232993 0.0 10231652
19:00+3ssw243798 0.0 10231757
22:000nw1186100 0.4 1025233
22 april, thu
thu2201:00−1s129351 0.8 102649
04:00−2nne348892 0.2 1028164
07:00−3ne487356 0.3 1031363
10:00+1nne4560100 0.0 10341180
13:00+3nne5648100 0.4 10351783
16:00+4nne5645100 0.8 10361771
19:00+3ne585892 1.3 10381277
22:00+1nne51267100 0.3 1040566
23 april, fri
fri2301:00−1nne410775 0.3 1040402
04:00−2nne38838 0.0 1040355
07:00−2nne378286 0.0 1041342
10:00+2ne465420 0.0 10411055
13:00+5ne5743100 0.0 10391960
16:00+6ne5745100 0.1 10381765
19:00+6nne475084 0.1 10381563
22:00+3nne497287 0.0 1038409
24 april, sat
sat2401:000n248470 0.0 103773
04:00−1nnw2588100 0.0 1036153
07:000nnw2484100 0.0 1036206
10:00+3nnw3466100 0.0 1035741
13:00+6nnw4554100 0.1 10331548
16:00+6nnw4554100 0.3 10321293
19:00+5nnw4566100 0.9 1032957
22:00+3nw3697100 1.6 1033404
25 april, sun
sun2501:00+2wnw3698100 1.8 1032349
04:00+2wnw3699100 1.4 1032277
07:00+1wnw3699100 2.6 1033219
10:00+2nw2299100 0.9 1033229
13:00+3w2183100 1.1 1033488
16:00+5nnw127246 0.0 1032691
19:00+6nne116514 0.0 1032813
22:00+3ene12796 0.0 103211